Location: Haliburton Scout Reserve
(45.0900°N, 78.3200°W)
Time: 16:16:09
(UTC-04:00)

Courier 1B - Pass Details

Date: 30 November 2023
Orbit: 962 x 1208 km, 28.3° (Epoch: 06 October)

Event Time Altitude Azimuth Distance (km) Brightness Sun altitude
Rises 15:43:41 0° 246° (WSW) 3,651 12.3 6.3°
Reaches altitude 10° 15:49:04 10° 210° (SSW) 2,741 11.4 5.6°
Maximum altitude 15:50:20 11° 199° (SSW) 2,710 11.0 5.4°
Drops below altitude 10° 15:51:37 10° 187° (S) 2,765 10.7 5.2°
Sets 15:57:12 0° 151° (SSE) 3,781 10.7 4.5°
